Enid, OK

7:39 PM CDT on March 25, 2017 (GMT -0500)
Enid Woodring Municipal

Weather History for KWDG - October, 2013

Change the Weather History Date:

Saturday, October 26, 2013

  Actual Average Record
Temperature  
Mean Temperature 55 °F -  
Max Temperature 68 °F 65 °F 89 °F (2014)
Min Temperature 41 °F 48 °F 32 °F (2012)
Degree Days  
Heating Degree Days 10    
Growing Degree Days 5 (Base 50)    
Moisture  
Dew Point 45 °F    
Average Humidity 78    
Maximum Humidity 94    
Minimum Humidity 63    
Precipitation  
Precipitation 0.00 in - - ()
Sea Level Pressure  
Sea Level Pressure 30.14 in    
Wind  
Wind Speed 8 mph (SW)    
Max Wind Speed 17 mph    
Max Gust Speed 130 mph    
Visibility 9 miles    
Events Rain    
Averages and records for this station are not official NWS values.
T = Trace of Precipitation, MM = Missing Value Source: NWS Daily Summary

Daily Weather History Graph

Daily Weather History Graph

Search for Another Location

Airport or City:

Trip Planner

Search our weather history database for the weather conditions in past years. The results will help you decide how hot, cold, wet, or windy it might be!

Date:

Astronomy

Oct. 26, 2013 Rise Set
Actual Time 7:48 AM CDT 6:40 PM CDT
Civil Twilight 7:22 AM CDT 7:07 PM CDT
Nautical Twilight 6:52 AM CDT 7:37 PM CDT
Astronomical Twilight 6:22 AM CDT 8:07 PM CDT
Moon 12:05 AM CDT 2:04 PM CDT
Length of Visible Light 11h 44m
Length of Day
10h 52m
Waning Gibbous, 53% of the Moon is Illuminated
Oct 26
Waning Gibbous
Oct 26
Last Quarter
Nov 3
New
Nov 9
First Quarter
Nov 17
Full

Hourly Weather History & Observations

Time (CDT) Temp. Windchill Dew Point Humidity Pressure Visibility Wind Dir Wind Speed Gust Speed Precip Events Conditions
12:15 AM 44.6 °F 41.4 °F 41.0 °F 87% 30.16 in 10.0 mi South 5.8 mph - N/A   Clear
12:35 AM 46.4 °F 43.5 °F 42.8 °F 87% 30.16 in 10.0 mi South 5.8 mph - N/A   Clear
12:55 AM 46.4 °F 43.5 °F 42.8 °F 87% 30.15 in 10.0 mi South 5.8 mph - N/A   Clear
1:15 AM 46.4 °F 42.4 °F 42.8 °F 87% 30.15 in 10.0 mi South 8.1 mph - N/A   Clear
1:35 AM 48.2 °F - 42.8 °F 82% 30.15 in 10.0 mi South 8.1 mph - N/A   Clear
1:55 AM 50.0 °F - 42.8 °F 76% 30.15 in 10.0 mi South 9.2 mph - N/A   Clear
2:15 AM 50.0 °F - 42.8 °F 76% 30.14 in 10.0 mi South 9.2 mph - N/A   Clear
2:35 AM 51.8 °F - 42.8 °F 71% 30.14 in 10.0 mi SSW 8.1 mph - N/A   Clear
2:55 AM 51.8 °F - 42.8 °F 71% 30.14 in 10.0 mi SSW 9.2 mph - N/A   Clear
3:15 AM 51.8 °F - 42.8 °F 71% 30.14 in 10.0 mi South 6.9 mph - N/A   Clear
3:35 AM 51.8 °F - 42.8 °F 71% 30.14 in 10.0 mi South 8.1 mph - N/A   Clear
3:55 AM 51.8 °F - 44.6 °F 76% 30.14 in 10.0 mi South 9.2 mph - N/A   Clear
4:15 AM 51.8 °F - 44.6 °F 76% 30.14 in 10.0 mi South 8.1 mph - N/A   Clear
4:35 AM 51.8 °F - 44.6 °F 76% 30.13 in 10.0 mi SSW 8.1 mph - N/A Rain Light Rain
4:55 AM 50.0 °F - 46.4 °F 87% 30.13 in 10.0 mi South 9.2 mph - N/A Rain Rain
5:15 AM 50.0 °F - 46.4 °F 87% 30.13 in 10.0 mi South 6.9 mph - N/A   Scattered Clouds
5:35 AM 50.0 °F - 46.4 °F 87% 30.12 in 10.0 mi South 9.2 mph - N/A   Clear
5:55 AM 50.0 °F - 46.4 °F 87% 30.12 in 10.0 mi South 6.9 mph - N/A   Light Drizzle
6:20 AM 50.0 °F - 48.2 °F 94% 30.10 in 10.0 mi South 15.0 mph - N/A   Mostly Cloudy
8:50 AM 51.8 °F - 50.0 °F 94% 30.12 in 7.0 mi SSE 13.8 mph - N/A   Overcast
9:55 AM 53.6 °F - 50.0 °F 88% 30.13 in 7.0 mi SSE 13.8 mph - N/A   Overcast
10:50 AM 57.2 °F - 53.6 °F 88% 30.13 in 7.0 mi South 16.1 mph - N/A   Mostly Cloudy
11:50 AM 60.8 °F - 55.4 °F 82% 30.14 in 7.0 mi WSW 8.1 mph - N/A   Mostly Cloudy
1:50 PM 68.0 °F - 55.4 °F 64% 30.12 in 7.0 mi NW 9.2 mph 130.0 mph N/A   Mostly Cloudy
2:50 PM 66.2 °F - 55.4 °F 68% 30.11 in 7.0 mi North 11.5 mph 16.1 mph N/A   Overcast
3:55 PM 66.2 °F - 53.6 °F 64% 30.10 in 7.0 mi North 12.7 mph 17.3 mph N/A   Mostly Cloudy
4:50 PM 66.2 °F - 55.4 °F 68% - 7.0 mi North - - N/A   Mostly Cloudy
5:50 PM 62.6 °F - 50.0 °F 63% 30.12 in 10.0 mi North 17.3 mph 23.0 mph N/A   Mostly Cloudy
6:50 PM 59.0 °F - 48.2 °F 67% 30.12 in 10.0 mi North 9.2 mph - N/A   Scattered Clouds
7:50 PM 55.4 °F - 48.2 °F 77% 30.14 in 10.0 mi North 9.2 mph - N/A   Scattered Clouds
8:50 PM 51.8 °F - 46.4 °F 82% 30.15 in 10.0 mi NW 5.8 mph - N/A   Scattered Clouds
9:15 PM 50.0 °F - 44.6 °F 82% 30.15 in 10.0 mi NNW 6.9 mph - N/A   Clear
9:35 PM 50.0 °F - 44.6 °F 82% 30.16 in 10.0 mi NNW 9.2 mph - N/A   Clear
9:55 PM 50.0 °F - 41.0 °F 71% 30.16 in 10.0 mi North 10.4 mph - N/A   Clear
10:15 PM 48.2 °F - 39.2 °F 71% 30.16 in 10.0 mi North 8.1 mph - N/A   Clear
10:35 PM 44.6 °F 40.2 °F 37.4 °F 76% 30.17 in 10.0 mi North 8.1 mph - N/A   Clear
10:55 PM 44.6 °F - 37.4 °F 76% 30.17 in 10.0 mi Calm Calm - N/A   Clear
11:15 PM 44.6 °F 39.7 °F 35.6 °F 71% 30.17 in 10.0 mi North 9.2 mph - N/A   Clear
11:35 PM 42.8 °F 38.6 °F 35.6 °F 76% 30.17 in 10.0 mi North 6.9 mph - N/A   Clear
11:55 PM 41.0 °F 35.8 °F 33.8 °F 76% 30.17 in 10.0 mi NNW 8.1 mph - N/A   Clear